Seldovia, AK

3:52 AM AKDT on March 24, 2017 (GMT -0800)
Seldovia

Weather History for PASO - March, 2013

Change the Weather History Date:

Sunday, March 3, 2013

  Actual Average (PAHO) Record (PAHO)
Temperature  
Mean Temperature 36 °F -  
Max Temperature 41 °F 33 °F 48 °F (2015)
Min Temperature 30 °F 19 °F -17 °F (1956)
Degree Days  
Heating Degree Days 30    
Moisture  
Dew Point 32 °F    
Average Humidity 87    
Maximum Humidity 96    
Minimum Humidity 60    
Precipitation  
Precipitation 0.08 in - - ()
Sea Level Pressure  
Sea Level Pressure 30.13 in    
Wind  
Wind Speed 3 mph (NNE)    
Max Wind Speed 14 mph    
Max Gust Speed 21 mph    
Visibility 10 miles    
Events Rain    
Averages and records for this station are not official NWS values.
T = Trace of Precipitation, MM = Missing Value Source: NWS Daily Summary

Daily Weather History Graph

Daily Weather History Graph

Search for Another Location

Airport or City:

Trip Planner

Search our weather history database for the weather conditions in past years. The results will help you decide how hot, cold, wet, or windy it might be!

Date:

Astronomy

Mar. 03, 2013 Rise Set
Actual Time 7:56 AM AKST 6:41 PM AKST
Civil Twilight 7:15 AM AKST 7:22 PM AKST
Nautical Twilight 6:28 AM AKST 8:09 PM AKST
Astronomical Twilight 5:40 AM AKST 8:58 PM AKST
Moon 2:07 AM AKST (3/3) 9:41 AM AKST (3/3)
Length of Visible Light 12h 06m
Length of Day
10h 44m
Waning Gibbous, 62% of the Moon is Illuminated
Mar 3
Waning Gibbous
Mar 4
Last Quarter
Mar 11
New
Mar 19
First Quarter
Mar 27
Full

Hourly Weather History & Observations

Time (AKST) Temp. Windchill Dew Point Humidity Pressure Visibility Wind Dir Wind Speed Gust Speed Precip Events Conditions
12:53 AM 32.0 °F - 30.9 °F 96% 29.99 in 10.0 mi Calm Calm - N/A   Scattered Clouds
1:53 AM 32.0 °F - 30.0 °F 92% 29.99 in 10.0 mi Calm Calm - N/A   Mostly Cloudy
3:53 AM 32.0 °F - 30.0 °F 92% 30.00 in 10.0 mi Calm Calm - N/A   Mostly Cloudy
4:53 AM 30.9 °F - 30.0 °F 96% 30.00 in 10.0 mi Calm Calm - N/A   Mostly Cloudy
5:53 AM 32.0 °F - 30.0 °F 92% 30.01 in 10.0 mi Calm Calm - N/A   Mostly Cloudy
6:53 AM 30.9 °F - 30.0 °F 96% 30.02 in 10.0 mi Calm Calm - N/A   Scattered Clouds
7:53 AM 30.9 °F - 30.0 °F 96% 30.04 in 10.0 mi Calm Calm - N/A   Partly Cloudy
8:53 AM 32.0 °F - 30.9 °F 96% 30.05 in 10.0 mi Calm Calm - N/A   Mostly Cloudy
9:53 AM 33.1 °F - 30.9 °F 92% 30.07 in 10.0 mi Calm Calm - N/A   Partly Cloudy
10:53 AM 37.9 °F 32.7 °F 28.9 °F 70% 30.09 in 10.0 mi Variable 6.9 mph - N/A   Clear
11:53 AM 41.0 °F 38.0 °F 28.0 °F 60% 30.12 in 10.0 mi Variable 4.6 mph - N/A   Mostly Cloudy
12:53 PM 39.9 °F 33.9 °F 28.9 °F 65% 30.15 in 10.0 mi SE 9.2 mph 17.3 mph 0.00 in Rain Light Rain
1:21 PM 39.2 °F 32.5 °F 30.2 °F 70% 30.15 in 10.0 mi North 10.4 mph 16.1 mph 0.01 in Rain Light Rain
1:53 PM 37.9 °F 29.6 °F 33.1 °F 83% 30.15 in 8.0 mi NNE 13.8 mph 20.7 mph 0.02 in Rain Light Rain
2:03 PM 37.4 °F 29.8 °F 33.8 °F 87% 30.15 in 7.0 mi NNE 11.5 mph - 0.00 in Rain Light Rain
2:11 PM 37.4 °F 30.3 °F 33.8 °F 87% 30.16 in 6.0 mi NNE 10.4 mph - 0.00 in Rain Light Rain
2:53 PM 37.9 °F - 34.0 °F 86% 30.17 in 10.0 mi Calm Calm - 0.01 in Rain Light Rain
3:53 PM 37.0 °F - 34.0 °F 89% 30.18 in 10.0 mi Calm Calm - 0.01 in Rain Light Rain
4:26 PM 37.4 °F 30.8 °F 33.8 °F 87% 30.18 in 7.0 mi NNE 9.2 mph - 0.01 in Rain Light Rain
4:53 PM 37.0 °F 31.6 °F 34.0 °F 89% 30.19 in 9.0 mi NNE 6.9 mph - 0.02 in Rain Light Rain
5:10 PM 37.4 °F 29.8 °F 33.8 °F 87% 30.20 in 10.0 mi NNE 11.5 mph - 0.00 in Rain Light Rain
5:53 PM 37.9 °F 30.9 °F 33.1 °F 83% 30.21 in 9.0 mi NNE 10.4 mph - 0.01 in Rain Light Rain
6:53 PM 36.0 °F - 34.0 °F 93% 30.24 in 10.0 mi Calm Calm - 0.00 in Rain Light Rain
7:53 PM 35.1 °F - 34.0 °F 96% 30.26 in 10.0 mi Calm Calm - 0.01 in Rain Light Rain
8:53 PM 35.1 °F - 33.1 °F 92% 30.27 in 10.0 mi Calm Calm - 0.00 in   Overcast
9:53 PM 34.0 °F - 33.1 °F 96% 30.29 in 10.0 mi Calm Calm - 0.00 in   Overcast
10:53 PM 37.0 °F 29.3 °F 34.0 °F 89% 30.29 in 10.0 mi South 11.5 mph 17.3 mph 0.00 in   Overcast